Home   Weather   Hudson   Past weeks
Flag for USA

Past Weather in Hudson, Wisconsin, USA — Yesterday and Last 2 Weeks

Now
29 °F

Sunny.


Feels Like: 21 °F
Forecast: 35 / 23 °F
Wind: 8 mph from South

Location: St. Paul Downtown Holman Field

Current Time: Dec 5, 2019 at 11:35:21 am

Latest Report: Dec 5, 2019 at 10:53 am


Visibility: 10 mi

Pressure: 29.89 "Hg

Humidity: 85%

Dew Point: 25 °F

Location of HudsonLocation

Past Weather in Hudson — Graph

°F

Hudson Temperature Yesterday

Maximum temperature yesterday: 38 °F (at 2:53 pm)
Minimum temperature yesterday: 22 °F (at 11:38 pm)
Average temperature yesterday: 31 °F

High & Low Weather Summary for the Past Weeks

 TemperatureHumidityPressure
High45 °F (Nov 20, 3:00 pm)93% (Nov 21, 4:53 am)30.61 "Hg (Nov 21, 4:53 am)
Low10 °F (Dec 2, 7:53 am)51% (Nov 23, 1:53 pm)29.43 "Hg (Nov 25, 2:53 am)
Average31 °F78%29.91 "Hg
* Reported Nov 20 9:37 am — Dec 5 9:53 am, Hudson. Weather by CustomWeather, © 2019

Note: Actual official high and low records may vary slightly from our data, if they occured in-between our weather recording intervals... More about our weather records

Hudson Weather History for the Previous 24 Hours

Scroll right to see more
 ConditionsComfort  
Time TempWeatherWind HumidityBarometerVisibility
9:53 am
Thu, Dec 5
28 °FSunny.8 mph89%29.91 "Hg8 mi
8:53 am27 °FSunny.9 mph92%29.91 "Hg7 mi
7:53 am26 °FIce fog.7 mph92%29.93 "Hg7 mi
6:53 am25 °FIce fog.8 mph92%29.91 "Hg6 mi
5:53 am24 °FIce fog.8 mph88%29.91 "Hg4 mi
4:53 am25 °FIce fog.7 mph92%29.92 "Hg4 mi
3:53 am23 °FIce fog.5 mph92%29.93 "Hg4 mi
3:33 am23 °FIce fog.No wind92%29.91 "Hg3 mi
2:58 am23 °FIce fog.No wind92%29.93 "Hg3 mi
2:35 am21 °FIce fog.No wind92%29.94 "Hg0 mi
2:19 am23 °FIce fog.No wind92%29.93 "Hg1 mi
1:59 am22 °FIce fog.No wind92%29.92 "Hg2 mi
1:33 am24 °FIce fog.No wind91%29.91 "Hg3 mi
1:17 am23 °FIce fog.No wind92%29.91 "Hg2 mi
12:53 am24 °FIce fog.No wind88%29.93 "Hg5 mi
12:35 am23 °FIce fog.No wind88%29.91 "Hg6 mi
11:57 pm
Wed, Dec 4
25 °FIce fog.3 mph92%29.90 "Hg3 mi
11:38 pm22 °FIce fog.No wind92%29.89 "Hg1 mi
11:15 pm25 °FIce fog.3 mph92%29.89 "Hg2 mi
9:53 pm27 °FClear.No wind89%29.91 "Hg9 mi
8:53 pm29 °FClear.No wind82%29.91 "Hg10 mi
7:53 pm31 °FClear.No wind76%29.90 "Hg10 mi
6:53 pm31 °FClear.3 mph79%29.90 "Hg10 mi
5:53 pm32 °FClear.6 mph75%29.89 "Hg10 mi
4:53 pm34 °FClear.9 mph73%29.88 "Hg10 mi
3:53 pm37 °FSunny.7 mph65%29.85 "Hg10 mi
2:53 pm38 °FSunny.10 mph63%29.84 "Hg10 mi
1:53 pm37 °FSunny.8 mph67%29.83 "Hg10 mi
12:53 pm37 °FSunny.8 mph65%29.81 "Hg10 mi
11:53 am36 °FSunny.12 mph67%29.80 "Hg10 mi
Weather by CustomWeather, © 2019

See weather overview

Advertising